Weather reports worldwide

Advertisment
Capri, Italy (16294): temperature & dewpoint: 15.09.2018 01:00:00 - 21.09.2018 01:00:00 (CEST)Capri, Italy (16294): wind speed: 15.09.2018 01:00:00 - 21.09.2018 01:00:00 (CEST)Capri, Italy (16294): wind direction: 15.09.2018 01:00:00 - 21.09.2018 01:00:00 (CEST)Capri, Italy (16294): reduced air pressure: 15.09.2018 01:00:00 - 21.09.2018 01:00:00 (CEST)Capri, Italy (16294): visibility: 15.09.2018 01:00:00 - 21.09.2018 01:00:00 (CEST)
Date & Time tt [°C] td [°C] ff [km/h] ff [kn] dd ppp [hPa] vv [km]
21.09.2018 01:00:00 - - - - - - -
21.09.2018 00:00:00 - - - - - - -
20.09.2018 23:00:00 23,5 18,8 5 3 E 1016,3 15
20.09.2018 22:00:00 - - - - - - -
20.09.2018 21:00:00 - - - - - - -
20.09.2018 20:00:00 24,2 20,5 5 3 ENE 1016,3 15
20.09.2018 19:00:00 - - - - - - -
20.09.2018 18:00:00 - - - - - - -
20.09.2018 17:00:00 27,6 20,4 0 0 N 1016,0 20
20.09.2018 16:00:00 29,0 20,0 4 2 S - 10
20.09.2018 15:00:00 27,0 18,0 4 2 SSE - 10
20.09.2018 14:00:00 26,0 16,6 4 2 ENE 1017,0 20
20.09.2018 13:00:00 25,0 17,0 4 2 ESE - 10
20.09.2018 12:00:00 - - - - - - -
20.09.2018 11:00:00 26,4 19,0 4 2 ESE 1017,7 10
20.09.2018 10:00:00 - - - - - - -
20.09.2018 09:00:00 - - - - - - -
20.09.2018 08:00:00 23,0 19,4 8 4 E 1017,6 12
20.09.2018 07:00:00 - - - - - - -
20.09.2018 06:00:00 - - - - - - -
20.09.2018 05:00:00 23,0 19,4 9 5 E 1017,6 15
20.09.2018 04:00:00 - - - - - - -
20.09.2018 03:00:00 - - - - - - -
20.09.2018 02:00:00 23,0 18,1 0 0 N 1018,5 20
20.09.2018 01:00:00 23,0 17,0 0 0 N - 10
20.09.2018 00:00:00 - - - - - - -
19.09.2018 23:00:00 23,0 18,3 0 0 N 1018,6 20
19.09.2018 22:00:00 23,0 17,0 0 0 N - 10
19.09.2018 21:00:00 23,0 18,0 0 0 N - 10
19.09.2018 20:00:00 23,0 18,3 0 0 N 1018,0 15
19.09.2018 19:00:00 23,0 19,0 0 0 N - 10
19.09.2018 18:00:00 23,0 20,0 0 0 N - 10
19.09.2018 17:00:00 23,4 19,8 0 0 N 1018,4 15
19.09.2018 16:00:00 24,0 21,0 11 6 SW - 10
19.09.2018 15:00:00 25,0 22,0 0 0 N - 10
19.09.2018 14:00:00 25,0 21,1 0 0 N 1019,3 20
19.09.2018 13:00:00 25,0 20,0 0 0 N - 10
19.09.2018 12:00:00 25,0 20,0 0 0 N - 10
19.09.2018 11:00:00 24,2 19,9 0 0 N 1019,6 20
19.09.2018 10:00:00 24,0 20,0 0 0 N - 10
19.09.2018 09:00:00 23,0 21,0 0 0 N - 10
19.09.2018 08:00:00 23,2 20,9 5 3 ENE 1019,3 20
19.09.2018 07:00:00 23,0 21,0 9 5 NE - 10
19.09.2018 06:00:00 23,0 21,0 4 2 - - 10
19.09.2018 05:00:00 23,2 20,7 4 2 - 1019,7 20
19.09.2018 04:00:00 - - - - - - -
19.09.2018 03:00:00 23,0 21,0 0 0 N - 10
19.09.2018 02:00:00 23,0 20,7 0 0 N 1019,8 20
19.09.2018 01:00:00 23,0 21,0 0 0 N - 10
19.09.2018 00:00:00 23,0 21,0 0 0 N - 10
18.09.2018 23:00:00 23,8 20,7 0 0 N 1019,8 20
18.09.2018 22:00:00 24,0 20,0 0 0 N - 10
18.09.2018 21:00:00 24,0 21,0 0 0 N - 10
18.09.2018 20:00:00 24,4 20,7 0 0 N 1019,8 20
18.09.2018 19:00:00 - - - - - - -
18.09.2018 18:00:00 - - - - - - -
18.09.2018 17:00:00 26,6 21,8 4 2 WSW 1019,9 20
18.09.2018 16:00:00 - - - - - - -
18.09.2018 15:00:00 - - - - - - -
18.09.2018 14:00:00 26,0 21,7 5 3 WSW 1020,8 25
18.09.2018 13:00:00 - - - - - - -
18.09.2018 12:00:00 - - - - - - -
18.09.2018 11:00:00 23,4 20,5 0 0 N 1021,0 25
18.09.2018 10:00:00 - - - - - - -
18.09.2018 09:00:00 - - - - - - -
18.09.2018 08:00:00 22,0 17,6 0 0 N 1020,6 15
18.09.2018 07:00:00 - - - - - - -
18.09.2018 06:00:00 - - - - - - -
18.09.2018 05:00:00 22,8 19,2 0 0 N 1020,5 10
18.09.2018 04:00:00 - - - - - - -
18.09.2018 03:00:00 - - - - - - -
18.09.2018 02:00:00 22,8 19,2 8 4 WSW 1020,7 10
18.09.2018 01:00:00 - - - - - - -
18.09.2018 00:00:00 - - - - - - -
17.09.2018 23:00:00 23,0 18,3 8 4 WNW 1020,7 10
17.09.2018 22:00:00 - - - - - - -
17.09.2018 21:00:00 - - - - - - -
17.09.2018 20:00:00 24,0 19,3 0 0 N 1020,7 10
17.09.2018 19:00:00 - - - - - - -
17.09.2018 18:00:00 - - - - - - -
17.09.2018 17:00:00 26,2 21,2 11 6 W 1021,1 15
17.09.2018 16:00:00 - - - - - - -
17.09.2018 15:00:00 - - - - - - -
17.09.2018 14:00:00 25,8 21,3 5 3 W 1022,6 15
17.09.2018 13:00:00 - - - - - - -
17.09.2018 12:00:00 - - - - - - -
17.09.2018 11:00:00 24,0 20,3 5 3 NE 1021,9 10
17.09.2018 10:00:00 - - - - - - -
17.09.2018 09:00:00 - - - - - - -
17.09.2018 08:00:00 22,4 17,3 5 3 ENE 1021,8 20
17.09.2018 07:00:00 - - - - - - -
17.09.2018 06:00:00 - - - - - - -
17.09.2018 05:00:00 23,0 17,9 0 0 N 1022,1 20
17.09.2018 04:00:00 - - - - - - -
17.09.2018 03:00:00 - - - - - - -
17.09.2018 02:00:00 22,8 18,8 0 0 N 1022,1 20
17.09.2018 01:00:00 - - - - - - -
17.09.2018 00:00:00 - - - - - - -
16.09.2018 23:00:00 23,2 17,9 4 2 NE 1022,3 20
16.09.2018 22:00:00 - - - - - - -
16.09.2018 21:00:00 - - - - - - -
16.09.2018 20:00:00 24,2 18,8 4 2 W 1021,7 20
16.09.2018 19:00:00 - - - - - - -
16.09.2018 18:00:00 - - - - - - -
16.09.2018 17:00:00 26,0 20,8 5 3 W 1021,7 20
16.09.2018 16:00:00 - - - - - - -
16.09.2018 15:00:00 - - - - - - -
16.09.2018 14:00:00 25,2 20,0 - - - 1023,1 20
16.09.2018 13:00:00 - - - - - - -
16.09.2018 12:00:00 - - - - - - -
16.09.2018 11:00:00 24,0 18,9 4 2 ENE 1023,6 20
16.09.2018 10:00:00 - - - - - - -
16.09.2018 09:00:00 - - - - - - -
16.09.2018 08:00:00 - - - - - - -
16.09.2018 07:00:00 - - - - - - -
16.09.2018 06:00:00 - - - - - - -
16.09.2018 05:00:00 - - - - - - -
16.09.2018 04:00:00 - - - - - - -
16.09.2018 03:00:00 - - - - - - -
16.09.2018 02:00:00 - - - - - - -
16.09.2018 01:00:00 - - - - - - -
16.09.2018 00:00:00 - - - - - - -
15.09.2018 23:00:00 - - - - - - -
15.09.2018 22:00:00 - - - - - - -
15.09.2018 21:00:00 - - - - - - -
15.09.2018 20:00:00 - - - - - - -
15.09.2018 19:00:00 - - - - - - -
15.09.2018 18:00:00 - - - - - - -
15.09.2018 17:00:00 26,0 21,0 9 5 W 1020,1 20
15.09.2018 16:00:00 26,0 21,0 0 0 N - 10
15.09.2018 15:00:00 26,0 22,0 11 6 W - 10
15.09.2018 14:00:00 25,0 20,9 0 0 N 1020,2 20
15.09.2018 13:00:00 - - - - - - -
15.09.2018 12:00:00 25,0 21,0 0 0 N - 10
15.09.2018 11:00:00 23,8 20,3 0 0 N 1019,7 20
15.09.2018 10:00:00 24,0 20,0 0 0 N - 10
15.09.2018 09:00:00 23,0 21,0 0 0 N - 10
15.09.2018 08:00:00 22,0 20,5 0 0 N 1019,1 15
15.09.2018 07:00:00 21,0 20,0 0 0 N - 10
15.09.2018 06:00:00 21,0 20,0 0 0 N - 10
15.09.2018 05:00:00 21,6 19,9 0 0 N 1018,1 20
15.09.2018 04:00:00 22,0 20,0 0 0 N - 10
15.09.2018 03:00:00 22,0 20,0 0 0 N - 10
15.09.2018 02:00:00 22,6 20,1 5 3 ENE 1018,2 20
15.09.2018 01:00:00 23,0 20,0 0 0 N - 10

tt = temperature
td = dewpoint
ff = wind speed
dd = wind direction
ppp = reduced air pressure
vv = visibility

Next stations